Time,TemperatureF,DewpointF,PressureIn,WindDirection,WindDirectionDegrees,WindSpeedMPH,WindSpeedGustMPH,Humidity,HourlyPrecipIn,Conditions,Clouds,dailyrainin,SoftwareType,DateUTC
2013-02-26 00:00:00,30.4,25.0,30.08,ENE,65,5.0,6.0,80,0.00,,,0.00,Wunderground v.1.15,2013-02-26 05:00:00,
2013-02-26 00:05:00,30.4,25.0,30.08,East,100,5.0,6.0,80,0.00,,,0.00,Wunderground v.1.15,2013-02-26 05:05:00,
2013-02-26 00:10:00,30.2,24.8,30.07,East,100,5.0,5.0,80,0.00,,,0.00,Wunderground v.1.15,2013-02-26 05:10:00,
2013-02-26 00:15:00,30.2,24.5,30.07,ENE,72,5.0,5.0,79,0.00,,,0.00,Wunderground v.1.15,2013-02-26 05:15:00,
2013-02-26 00:25:00,30.1,24.1,30.07,ESE,108,5.0,7.0,78,0.00,,,0.00,Wunderground v.1.15,2013-02-26 05:25:00,
2013-02-26 00:30:00,30.0,24.0,30.06,East,84,5.0,5.0,78,0.00,,,0.00,Wunderground v.1.15,2013-02-26 05:30:00,
2013-02-26 00:35:00,29.8,24.1,30.06,ENE,65,5.0,10.0,79,0.00,,,0.00,Wunderground v.1.15,2013-02-26 05:35:00,
2013-02-26 00:40:00,29.7,23.7,30.06,East,79,5.0,7.0,78,0.00,,,0.00,Wunderground v.1.15,2013-02-26 05:40:00,
2013-02-26 00:45:00,29.6,23.6,30.06,ENE,73,5.0,8.0,78,0.00,,,0.00,Wunderground v.1.15,2013-02-26 05:45:00,
2013-02-26 00:50:00,29.6,23.6,30.05,East,98,5.0,5.0,78,0.00,,,0.00,Wunderground v.1.15,2013-02-26 05:50:00,
2013-02-26 00:55:00,29.5,23.5,30.05,East,82,5.0,5.0,78,0.00,,,0.00,Wunderground v.1.15,2013-02-26 05:55:00,
2013-02-26 01:05:00,29.3,23.3,30.05,East,79,5.0,6.0,78,0.00,,,0.00,Wunderground v.1.15,2013-02-26 06:05:00,
2013-02-26 01:10:00,29.3,23.3,30.06,ENE,68,4.0,6.0,78,0.00,,,0.00,Wunderground v.1.15,2013-02-26 06:10:00,
2013-02-26 01:15:00,29.2,23.2,30.06,ESE,113,4.0,6.0,78,0.00,,,0.00,Wunderground v.1.15,2013-02-26 06:15:00,
2013-02-26 01:20:00,29.2,23.2,30.05,East,86,5.0,5.0,78,0.00,,,0.00,Wunderground v.1.15,2013-02-26 06:20:00,
2013-02-26 01:30:00,29.2,23.2,30.05,ENE,74,6.0,11.0,78,0.00,,,0.00,Wunderground v.1.15,2013-02-26 06:30:00,
2013-02-26 01:35:00,29.2,22.9,30.05,ENE,77,7.0,11.0,77,0.00,,,0.00,Wunderground v.1.15,2013-02-26 06:35:00,
2013-02-26 01:40:00,29.1,22.8,30.04,ENE,58,7.0,7.0,77,0.00,,,0.00,Wunderground v.1.15,2013-02-26 06:40:00,
2013-02-26 01:45:00,29.1,22.8,30.04,ENE,70,7.0,12.0,77,0.00,,,0.00,Wunderground v.1.15,2013-02-26 06:45:00,
2013-02-26 01:50:00,29.1,22.8,30.04,ENE,67,7.0,8.0,77,0.00,,,0.00,Wunderground v.1.15,2013-02-26 06:50:00,
2013-02-26 01:55:00,29.0,22.7,30.03,East,89,7.0,8.0,77,0.00,,,0.00,Wunderground v.1.15,2013-02-26 06:55:00,
2013-02-26 02:00:00,28.9,22.6,30.04,East,99,6.0,6.0,77,0.00,,,0.00,Wunderground v.1.15,2013-02-26 07:00:00,
2013-02-26 02:10:00,28.9,22.6,30.03,East,83,6.0,10.0,77,0.00,,,0.00,Wunderground v.1.15,2013-02-26 07:10:00,
2013-02-26 02:15:00,28.9,22.6,30.02,East,80,7.0,10.0,77,0.00,,,0.00,Wunderground v.1.15,2013-02-26 07:15:00,
2013-02-26 02:20:00,28.9,22.6,30.02,East,82,7.0,7.0,77,0.00,,,0.00,Wunderground v.1.15,2013-02-26 07:20:00,
2013-02-26 02:25:00,28.8,22.5,30.02,ESE,110,6.0,7.0,77,0.00,,,0.00,Wunderground v.1.15,2013-02-26 07:25:00,
2013-02-26 02:30:00,28.8,22.5,30.02,East,91,7.0,7.0,77,0.00,,,0.00,Wunderground v.1.15,2013-02-26 07:30:00,
2013-02-26 02:35:00,28.8,22.5,30.02,ENE,77,7.0,7.0,77,0.00,,,0.00,Wunderground v.1.15,2013-02-26 07:35:00,
2013-02-26 02:40:00,28.8,22.5,30.02,SE,128,7.0,7.0,77,0.00,,,0.00,Wunderground v.1.15,2013-02-26 07:40:00,
2013-02-26 02:45:00,28.9,22.6,30.02,East,84,7.0,7.0,77,0.00,,,0.00,Wunderground v.1.15,2013-02-26 07:45:00,
2013-02-26 02:50:00,28.8,22.5,30.02,ENE,70,7.0,7.0,77,0.00,,,0.00,Wunderground v.1.15,2013-02-26 07:50:00,
2013-02-26 02:55:00,28.8,22.5,30.01,ENE,68,7.0,7.0,77,0.00,,,0.00,Wunderground v.1.15,2013-02-26 07:55:00,
2013-02-26 03:00:00,28.9,22.6,30.01,East,81,8.0,17.0,77,0.00,,,0.00,Wunderground v.1.15,2013-02-26 08:00:00,
2013-02-26 03:10:00,28.8,22.5,29.99,ENE,75,8.0,9.0,77,0.00,,,0.00,Wunderground v.1.15,2013-02-26 08:10:00,
2013-02-26 03:15:00,28.8,22.5,29.99,ENE,68,8.0,9.0,77,0.00,,,0.00,Wunderground v.1.15,2013-02-26 08:15:00,
2013-02-26 03:20:00,28.8,22.8,29.98,ENE,63,9.0,9.0,78,0.00,,,0.00,Wunderground v.1.15,2013-02-26 08:20:00,
2013-02-26 03:25:00,28.7,22.7,29.98,ENE,77,8.0,10.0,78,0.00,,,0.00,Wunderground v.1.15,2013-02-26 08:25:00,
2013-02-26 03:35:00,28.6,22.6,29.98,NE,48,7.0,7.0,78,0.00,,,0.00,Wunderground v.1.15,2013-02-26 08:35:00,
2013-02-26 03:40:00,28.6,22.6,29.98,East,79,7.0,8.0,78,0.00,,,0.00,Wunderground v.1.15,2013-02-26 08:40:00,
2013-02-26 03:45:00,28.5,22.5,29.97,ENE,69,8.0,8.0,78,0.00,,,0.00,Wunderground v.1.15,2013-02-26 08:45:00,
2013-02-26 03:50:00,28.5,22.8,29.98,ENE,60,8.0,8.0,79,0.00,,,0.00,Wunderground v.1.15,2013-02-26 08:50:00,
2013-02-26 03:55:00,28.4,22.7,29.97,East,83,7.0,8.0,79,0.00,,,0.00,Wunderground v.1.15,2013-02-26 08:55:00,
2013-02-26 04:00:00,28.4,22.7,29.96,ENE,60,7.0,9.0,79,0.00,,,0.00,Wunderground v.1.15,2013-02-26 09:00:00,
2013-02-26 04:10:00,28.4,22.7,29.93,ENE,75,9.0,9.0,79,0.00,,,0.00,Wunderground v.1.15,2013-02-26 09:10:00,
2013-02-26 04:15:00,28.4,22.7,29.94,East,87,8.0,9.0,79,0.00,,,0.00,Wunderground v.1.15,2013-02-26 09:15:00,
2013-02-26 04:20:00,28.4,22.7,29.93,East,79,7.0,9.0,79,0.00,,,0.00,Wunderground v.1.15,2013-02-26 09:20:00,
2013-02-26 04:25:00,28.5,22.8,29.93,East,86,7.0,9.0,79,0.00,,,0.00,Wunderground v.1.15,2013-02-26 09:25:00,
2013-02-26 04:30:00,28.4,22.7,29.92,ENE,63,7.0,7.0,79,0.00,,,0.00,Wunderground v.1.15,2013-02-26 09:30:00,
2013-02-26 04:40:00,28.5,22.5,29.91,NE,49,8.0,8.0,78,0.00,,,0.00,Wunderground v.1.15,2013-02-26 09:40:00,
2013-02-26 04:45:00,28.6,22.6,29.91,ENE,75,8.0,8.0,78,0.00,,,0.00,Wunderground v.1.15,2013-02-26 09:45:00,
2013-02-26 04:50:00,28.7,22.7,29.91,East,82,9.0,10.0,78,0.00,,,0.00,Wunderground v.1.15,2013-02-26 09:50:00,
2013-02-26 04:55:00,28.7,22.7,29.91,East,79,8.0,10.0,78,0.00,,,0.00,Wunderground v.1.15,2013-02-26 09:55:00,
2013-02-26 05:00:00,28.8,22.8,29.92,ENE,59,8.0,10.0,78,0.00,,,0.00,Wunderground v.1.15,2013-02-26 10:00:00,
2013-02-26 05:10:00,28.8,22.8,29.93,ENE,68,9.0,9.0,78,0.00,,,0.00,Wunderground v.1.15,2013-02-26 10:10:00,
2013-02-26 05:15:00,28.8,22.8,29.93,ENE,77,8.0,9.0,78,0.00,,,0.00,Wunderground v.1.15,2013-02-26 10:15:00,
2013-02-26 05:20:00,28.8,22.8,29.94,ENE,63,7.0,10.0,78,0.00,,,0.00,Wunderground v.1.15,2013-02-26 10:20:00,
2013-02-26 05:25:00,28.9,22.9,29.93,ENE,76,7.0,10.0,78,0.00,,,0.00,Wunderground v.1.15,2013-02-26 10:25:00,
2013-02-26 05:30:00,28.9,22.9,29.93,ESE,103,7.0,7.0,78,0.00,,,0.00,Wunderground v.1.15,2013-02-26 10:30:00,
2013-02-26 05:35:00,28.8,22.8,29.92,ENE,73,7.0,7.0,78,0.00,,,0.00,Wunderground v.1.15,2013-02-26 10:35:00,
2013-02-26 05:45:00,28.8,22.8,29.90,NE,39,7.0,7.0,78,0.00,,,0.00,Wunderground v.1.15,2013-02-26 10:45:00,
2013-02-26 05:50:00,28.8,22.8,29.91,East,86,6.0,6.0,78,0.00,,,0.00,Wunderground v.1.15,2013-02-26 10:50:00,
2013-02-26 05:55:00,28.9,22.9,29.90,ENE,70,6.0,6.0,78,0.00,,,0.00,Wunderground v.1.15,2013-02-26 10:55:00,
2013-02-26 06:00:00,28.9,22.9,29.90,NE,46,6.0,7.0,78,0.00,,,0.00,Wunderground v.1.15,2013-02-26 11:00:00,
2013-02-26 06:10:00,29.0,22.7,29.89,East,82,6.0,6.0,77,0.00,,,0.00,Wunderground v.1.15,2013-02-26 11:10:00,
2013-02-26 06:15:00,29.0,23.0,29.89,ESE,102,6.0,6.0,78,0.00,,,0.00,Wunderground v.1.15,2013-02-26 11:15:00,
2013-02-26 06:20:00,29.0,23.0,29.89,NE,48,6.0,6.0,78,0.00,,,0.00,Wunderground v.1.15,2013-02-26 11:20:00,
2013-02-26 06:25:00,29.0,22.7,29.89,ENE,70,7.0,7.0,77,0.00,,,0.00,Wunderground v.1.15,2013-02-26 11:25:00,
2013-02-26 06:30:00,29.0,22.7,29.88,ENE,73,6.0,7.0,77,0.00,,,0.00,Wunderground v.1.15,2013-02-26 11:30:00,
2013-02-26 06:35:00,29.1,22.8,29.87,ENE,59,7.0,7.0,77,0.00,,,0.00,Wunderground v.1.15,2013-02-26 11:35:00,
2013-02-26 06:40:00,29.1,22.8,29.86,NE,56,8.0,12.0,77,0.00,,,0.00,Wunderground v.1.15,2013-02-26 11:40:00,
2013-02-26 06:50:00,29.3,22.7,29.86,East,86,8.0,8.0,76,0.00,,,0.00,Wunderground v.1.15,2013-02-26 11:50:00,
2013-02-26 06:55:00,29.3,23.0,29.86,NE,53,7.0,8.0,77,0.00,,,0.00,Wunderground v.1.15,2013-02-26 11:55:00,
2013-02-26 07:00:00,29.3,23.0,29.87,East,79,7.0,8.0,77,0.00,,,0.00,Wunderground v.1.15,2013-02-26 12:00:00,
2013-02-26 07:10:00,29.5,22.9,29.88,ENE,62,10.0,10.0,76,0.00,,,0.00,Wunderground v.1.15,2013-02-26 12:10:00,
2013-02-26 07:20:00,29.6,23.0,29.88,East,94,8.0,9.0,76,0.00,,,0.00,Wunderground v.1.15,2013-02-26 12:20:00,
2013-02-26 07:25:00,29.6,23.0,29.89,ENE,74,9.0,11.0,76,0.00,,,0.00,Wunderground v.1.15,2013-02-26 12:25:00,
2013-02-26 07:30:00,29.7,23.1,29.89,East,86,9.0,11.0,76,0.00,,,0.00,Wunderground v.1.15,2013-02-26 12:30:00,
2013-02-26 07:35:00,29.8,23.2,29.88,ENE,69,10.0,11.0,76,0.00,,,0.00,Wunderground v.1.15,2013-02-26 12:35:00,
2013-02-26 07:40:00,29.8,23.2,29.88,ENE,72,8.0,8.0,76,0.00,,,0.00,Wunderground v.1.15,2013-02-26 12:40:00,
2013-02-26 07:45:00,29.8,23.2,29.87,ENE,64,7.0,8.0,76,0.00,,,0.00,Wunderground v.1.15,2013-02-26 12:45:00,
2013-02-26 07:55:00,30.0,23.4,29.85,ENE,74,9.0,9.0,76,0.00,,,0.00,Wunderground v.1.15,2013-02-26 12:55:00,
2013-02-26 08:00:00,30.0,23.4,29.86,ENE,60,8.0,8.0,76,0.00,,,0.00,Wunderground v.1.15,2013-02-26 13:00:00,
2013-02-26 08:10:00,30.2,23.2,29.85,ENE,65,10.0,10.0,75,0.00,,,0.00,Wunderground v.1.15,2013-02-26 13:10:00,
2013-02-26 08:15:00,30.2,23.2,29.85,East,84,10.0,10.0,75,0.00,,,0.00,Wunderground v.1.15,2013-02-26 13:15:00,
2013-02-26 08:25:00,30.4,23.4,29.85,East,88,10.0,10.0,75,0.00,,,0.00,Wunderground v.1.15,2013-02-26 13:25:00,
2013-02-26 08:30:00,30.5,23.2,29.84,ENE,65,10.0,10.0,74,0.00,,,0.00,Wunderground v.1.15,2013-02-26 13:30:00,
2013-02-26 08:35:00,30.5,23.2,29.83,NNE,27,10.0,19.0,74,0.00,,,0.00,Wunderground v.1.15,2013-02-26 13:35:00,
2013-02-26 08:40:00,30.6,23.3,29.84,ENE,68,10.0,10.0,74,0.00,,,0.00,Wunderground v.1.15,2013-02-26 13:40:00,
2013-02-26 08:45:00,30.8,23.5,29.84,ENE,65,12.0,12.0,74,0.00,,,0.00,Wunderground v.1.15,2013-02-26 13:45:00,
2013-02-26 08:50:00,30.8,23.5,29.84,ENE,71,11.0,16.0,74,0.00,,,0.00,Wunderground v.1.15,2013-02-26 13:50:00,
2013-02-26 09:00:00,31.1,23.8,29.83,East,79,10.0,14.0,74,0.00,,,0.00,Wunderground v.1.15,2013-02-26 14:00:00,
2013-02-26 09:10:00,31.4,23.7,29.82,ENE,68,11.0,12.0,73,0.00,,,0.00,Wunderground v.1.15,2013-02-26 14:10:00,
2013-02-26 09:15:00,31.7,23.7,29.82,NE,53,12.0,12.0,72,0.00,,,0.00,Wunderground v.1.15,2013-02-26 14:15:00,
2013-02-26 09:20:00,31.8,23.8,29.82,ESE,108,12.0,12.0,72,0.00,,,0.00,Wunderground v.1.15,2013-02-26 14:20:00,
2013-02-26 09:30:00,32.2,23.8,29.80,ENE,60,12.0,12.0,71,0.00,,,0.00,Wunderground v.1.15,2013-02-26 14:30:00,
2013-02-26 09:35:00,32.3,23.9,29.79,East,89,12.0,15.0,71,0.00,,,0.00,Wunderground v.1.15,2013-02-26 14:35:00,
2013-02-26 09:40:00,32.4,24.0,29.79,ESE,110,12.0,12.0,71,0.00,,,0.00,Wunderground v.1.15,2013-02-26 14:40:00,
2013-02-26 09:45:00,32.5,24.1,29.78,NNE,23,12.0,12.0,71,0.00,,,0.00,Wunderground v.1.15,2013-02-26 14:45:00,
2013-02-26 09:50:00,32.6,23.9,29.78,ENE,65,13.0,13.0,70,0.00,,,0.00,Wunderground v.1.15,2013-02-26 14:50:00,
2013-02-26 09:55:00,32.7,24.3,29.78,ENE,75,12.0,13.0,71,0.00,,,0.00,Wunderground v.1.15,2013-02-26 14:55:00,
2013-02-26 10:00:00,32.8,24.1,29.76,ENE,68,12.0,14.0,70,0.00,,,0.00,Wunderground v.1.15,2013-02-26 15:00:00,
2013-02-26 10:10:00,33.0,24.3,29.75,ESE,103,13.0,13.0,70,0.00,,,0.00,Wunderground v.1.15,2013-02-26 15:10:00,
2013-02-26 10:20:00,32.9,24.5,29.74,ENE,70,13.0,13.0,71,0.00,,,0.00,Wunderground v.1.15,2013-02-26 15:20:00,
2013-02-26 10:25:00,32.9,24.2,29.73,NNE,20,12.0,13.0,70,0.00,,,0.00,Wunderground v.1.15,2013-02-26 15:25:00,
2013-02-26 10:30:00,32.9,24.2,29.73,ENE,75,12.0,14.0,70,0.00,,,0.00,Wunderground v.1.15,2013-02-26 15:30:00,
2013-02-26 10:35:00,32.9,24.2,29.72,SE,127,12.0,14.0,70,0.00,,,0.00,Wunderground v.1.15,2013-02-26 15:35:00,
2013-02-26 10:40:00,32.9,24.5,29.72,East,79,13.0,17.0,71,0.00,,,0.00,Wunderground v.1.15,2013-02-26 15:40:00,
2013-02-26 10:45:00,32.8,24.8,29.72,ENE,70,13.0,17.0,72,0.00,,,0.00,Wunderground v.1.15,2013-02-26 15:45:00,
2013-02-26 10:50:00,32.7,25.0,29.72,ENE,75,12.0,13.0,73,0.00,,,0.00,Wunderground v.1.15,2013-02-26 15:50:00,
2013-02-26 10:55:00,32.7,25.3,29.72,ENE,60,12.0,13.0,74,0.00,,,0.00,Wunderground v.1.15,2013-02-26 15:55:00,
2013-02-26 11:00:00,32.7,25.3,29.71,East,92,12.0,12.0,74,0.00,,,0.00,Wunderground v.1.15,2013-02-26 16:00:00,
2013-02-26 11:10:00,32.7,26.0,29.71,ENE,66,12.0,12.0,76,0.00,,,0.00,Wunderground v.1.15,2013-02-26 16:10:00,
2013-02-26 11:15:00,32.6,26.2,29.70,East,91,11.0,12.0,77,0.00,,,0.00,Wunderground v.1.15,2013-02-26 16:15:00,
2013-02-26 11:20:00,32.6,26.5,29.70,ENE,73,11.0,20.0,78,0.00,,,0.00,Wunderground v.1.15,2013-02-26 16:20:00,
2013-02-26 11:25:00,32.5,27.0,29.69,ENE,77,12.0,20.0,80,0.00,,,0.00,Wunderground v.1.15,2013-02-26 16:25:00,
2013-02-26 11:30:00,32.5,27.0,29.69,East,81,12.0,13.0,80,0.00,,,0.00,Wunderground v.1.15,2013-02-26 16:30:00,
2013-02-26 11:40:00,32.4,27.2,29.68,NE,49,11.0,12.0,81,0.00,,,0.00,Wunderground v.1.15,2013-02-26 16:40:00,
2013-02-26 11:45:00,32.4,27.5,29.68,ENE,73,11.0,12.0,82,0.00,,,0.00,Wunderground v.1.15,2013-02-26 16:45:00,
2013-02-26 11:50:00,32.4,27.2,29.67,East,100,12.0,12.0,81,0.00,,,0.00,Wunderground v.1.15,2013-02-26 16:50:00,
2013-02-26 11:55:00,32.4,27.8,29.67,ENE,69,11.0,14.0,83,0.00,,,0.00,Wunderground v.1.15,2013-02-26 16:55:00,
2013-02-26 12:00:00,32.3,27.7,29.66,ENE,73,10.0,10.0,83,0.00,,,0.00,Wunderground v.1.15,2013-02-26 17:00:00,
2013-02-26 12:10:00,32.1,27.8,29.64,NE,51,10.0,11.0,84,0.00,,,0.00,Wunderground v.1.15,2013-02-26 17:10:00,
2013-02-26 12:15:00,32.1,27.8,29.64,ENE,75,10.0,11.0,84,0.00,,,0.00,Wunderground v.1.15,2013-02-26 17:15:00,
2013-02-26 12:20:00,32.1,27.8,29.63,East,84,10.0,10.0,84,0.00,,,0.00,Wunderground v.1.15,2013-02-26 17:20:00,
2013-02-26 12:25:00,32.0,28.0,29.62,ENE,63,10.0,11.0,85,0.00,,,0.00,Wunderground v.1.15,2013-02-26 17:25:00,
2013-02-26 12:30:00,32.0,28.0,29.62,ESE,118,9.0,9.0,85,0.00,,,0.00,Wunderground v.1.15,2013-02-26 17:30:00,
2013-02-26 12:35:00,32.0,28.3,29.63,ENE,68,9.0,9.0,86,0.00,,,0.00,Wunderground v.1.15,2013-02-26 17:35:00,
2013-02-26 12:45:00,32.0,28.3,29.61,ENE,78,9.0,9.0,86,0.00,,,0.00,Wunderground v.1.15,2013-02-26 17:45:00,
2013-02-26 12:50:00,32.1,28.4,29.61,East,80,9.0,10.0,86,0.00,,,0.00,Wunderground v.1.15,2013-02-26 17:50:00,
2013-02-26 12:55:00,32.0,28.6,29.61,ENE,78,8.0,10.0,87,0.00,,,0.00,Wunderground v.1.15,2013-02-26 17:55:00,
2013-02-26 13:00:00,32.0,28.6,29.60,SE,124,7.0,7.0,87,0.00,,,0.00,Wunderground v.1.15,2013-02-26 18:00:00,
2013-02-26 13:10:00,31.9,28.5,29.59,ENE,65,7.0,11.0,87,0.00,,,0.00,Wunderground v.1.15,2013-02-26 18:10:00,
2013-02-26 13:15:00,31.9,28.8,29.60,East,83,7.0,11.0,88,0.00,,,0.00,Wunderground v.1.15,2013-02-26 18:15:00,
2013-02-26 13:20:00,31.9,28.8,29.60,ENE,70,7.0,11.0,88,0.00,,,0.00,Wunderground v.1.15,2013-02-26 18:20:00,
2013-02-26 13:25:00,31.9,28.8,29.61,ENE,58,7.0,11.0,88,0.00,,,0.00,Wunderground v.1.15,2013-02-26 18:25:00,
2013-02-26 13:30:00,31.8,28.9,29.61,SE,131,6.0,6.0,89,0.00,,,0.00,Wunderground v.1.15,2013-02-26 18:30:00,
2013-02-26 13:35:00,31.8,28.9,29.60,ENE,58,6.0,7.0,89,0.00,,,0.00,Wunderground v.1.15,2013-02-26 18:35:00,
2013-02-26 13:40:00,31.8,28.9,29.60,East,91,6.0,7.0,89,0.00,,,0.00,Wunderground v.1.15,2013-02-26 18:40:00,
2013-02-26 13:50:00,31.8,28.9,29.60,ENE,75,5.0,6.0,89,0.00,,,0.00,Wunderground v.1.15,2013-02-26 18:50:00,
2013-02-26 13:55:00,31.8,29.2,29.60,East,91,5.0,6.0,90,0.00,,,0.00,Wunderground v.1.15,2013-02-26 18:55:00,
2013-02-26 14:00:00,31.8,28.9,29.59,ENE,65,5.0,5.0,89,0.00,,,0.00,Wunderground v.1.15,2013-02-26 19:00:00,
2013-02-26 14:10:00,31.8,28.9,29.58,East,81,6.0,7.0,89,0.00,,,0.00,Wunderground v.1.15,2013-02-26 19:10:00,
2013-02-26 14:20:00,31.8,29.2,29.58,ENE,60,5.0,8.0,90,0.00,,,0.00,Wunderground v.1.15,2013-02-26 19:20:00,
2013-02-26 14:25:00,31.8,29.2,29.58,East,100,6.0,8.0,90,0.00,,,0.00,Wunderground v.1.15,2013-02-26 19:25:00,
2013-02-26 14:30:00,31.7,29.4,29.58,East,84,5.0,5.0,91,0.00,,,0.00,Wunderground v.1.15,2013-02-26 19:30:00,
2013-02-26 14:35:00,31.7,29.4,29.58,NE,56,4.0,8.0,91,0.00,,,0.00,Wunderground v.1.15,2013-02-26 19:35:00,
2013-02-26 14:40:00,31.7,29.4,29.57,ENE,68,5.0,5.0,91,0.00,,,0.00,Wunderground v.1.15,2013-02-26 19:40:00,
2013-02-26 14:45:00,31.6,29.3,29.57,East,100,5.0,5.0,91,0.00,,,0.00,Wunderground v.1.15,2013-02-26 19:45:00,
2013-02-26 14:55:00,31.7,29.6,29.56,ESE,104,4.0,5.0,92,0.00,,,0.00,Wunderground v.1.15,2013-02-26 19:55:00,
2013-02-26 15:00:00,31.7,29.6,29.56,NE,53,4.0,5.0,92,0.00,,,0.00,Wunderground v.1.15,2013-02-26 20:00:00,
2013-02-26 15:10:00,31.5,29.7,29.55,ENE,71,5.0,5.0,93,0.00,,,0.00,Wunderground v.1.15,2013-02-26 20:10:00,
2013-02-26 15:15:00,31.5,29.7,29.55,ENE,73,4.0,5.0,93,0.00,,,0.00,Wunderground v.1.15,2013-02-26 20:15:00,
2013-02-26 15:25:00,31.6,30.1,29.55,East,88,4.0,5.0,94,0.00,,,0.00,Wunderground v.1.15,2013-02-26 20:25:00,
2013-02-26 15:30:00,31.6,30.1,29.55,East,87,4.0,4.0,94,0.00,,,0.00,Wunderground v.1.15,2013-02-26 20:30:00,
2013-02-26 15:35:00,31.6,30.1,29.55,East,91,3.0,4.0,94,0.00,,,0.00,Wunderground v.1.15,2013-02-26 20:35:00,
2013-02-26 15:40:00,31.7,30.2,29.55,NE,48,4.0,4.0,94,0.00,,,0.00,Wunderground v.1.15,2013-02-26 20:40:00,
2013-02-26 15:45:00,31.7,30.2,29.55,ENE,72,4.0,5.0,94,0.00,,,0.00,Wunderground v.1.15,2013-02-26 20:45:00,
2013-02-26 15:50:00,31.7,30.2,29.54,East,82,4.0,4.0,94,0.00,,,0.00,Wunderground v.1.15,2013-02-26 20:50:00,
2013-02-26 16:00:00,31.8,30.3,29.54,ESE,108,4.0,4.0,94,0.00,,,0.00,Wunderground v.1.15,2013-02-26 21:00:00,
2013-02-26 16:10:00,31.7,30.2,29.54,ENE,71,4.0,4.0,94,0.00,,,0.00,Wunderground v.1.15,2013-02-26 21:10:00,
2013-02-26 16:15:00,31.7,30.2,29.55,East,82,4.0,4.0,94,0.00,,,0.00,Wunderground v.1.15,2013-02-26 21:15:00,
2013-02-26 16:20:00,31.8,30.3,29.55,ENE,68,4.0,4.0,94,0.00,,,0.00,Wunderground v.1.15,2013-02-26 21:20:00,
2013-02-26 16:30:00,31.8,30.3,29.54,East,92,4.0,4.0,94,0.00,,,0.00,Wunderground v.1.15,2013-02-26 21:30:00,
2013-02-26 16:35:00,31.9,30.4,29.54,East,91,4.0,6.0,94,0.00,,,0.00,Wunderground v.1.15,2013-02-26 21:35:00,
2013-02-26 16:40:00,31.9,30.4,29.54,ESE,121,4.0,4.0,94,0.00,,,0.00,Wunderground v.1.15,2013-02-26 21:40:00,
2013-02-26 16:45:00,32.0,30.5,29.54,ESE,104,4.0,4.0,94,0.00,,,0.00,Wunderground v.1.15,2013-02-26 21:45:00,
2013-02-26 16:50:00,32.0,30.5,29.54,NE,52,4.0,4.0,94,0.00,,,0.00,Wunderground v.1.15,2013-02-26 21:50:00,
2013-02-26 16:55:00,32.0,30.5,29.54,ENE,65,4.0,4.0,94,0.00,,,0.00,Wunderground v.1.15,2013-02-26 21:55:00,
2013-02-26 17:00:00,31.9,30.4,29.54,East,84,4.0,4.0,94,0.00,,,0.00,Wunderground v.1.15,2013-02-26 22:00:00,
2013-02-26 17:10:00,31.9,30.4,29.54,ENE,70,4.0,5.0,94,0.00,,,0.00,Wunderground v.1.15,2013-02-26 22:10:00,
2013-02-26 17:15:00,32.0,30.5,29.54,East,81,4.0,5.0,94,0.00,,,0.00,Wunderground v.1.15,2013-02-26 22:15:00,
2013-02-26 17:20:00,32.0,30.5,29.54,ESE,110,4.0,4.0,94,0.00,,,0.00,Wunderground v.1.15,2013-02-26 22:20:00,
2013-02-26 17:25:00,32.0,30.5,29.54,East,84,4.0,4.0,94,0.00,,,0.00,Wunderground v.1.15,2013-02-26 22:25:00,
2013-02-26 17:35:00,31.9,30.4,29.54,ESE,109,3.0,4.0,94,0.00,,,0.00,Wunderground v.1.15,2013-02-26 22:35:00,
2013-02-26 17:40:00,31.9,30.4,29.54,ENE,63,3.0,3.0,94,0.00,,,0.00,Wunderground v.1.15,2013-02-26 22:40:00,
2013-02-26 17:45:00,31.9,30.4,29.54,ESE,113,4.0,4.0,94,0.00,,,0.00,Wunderground v.1.15,2013-02-26 22:45:00,
2013-02-26 17:50:00,31.9,30.6,29.53,East,91,3.0,6.0,95,0.00,,,0.00,Wunderground v.1.15,2013-02-26 22:50:00,
2013-02-26 17:55:00,31.9,30.6,29.54,ENE,77,4.0,6.0,95,0.00,,,0.00,Wunderground v.1.15,2013-02-26 22:55:00,
2013-02-26 18:00:00,31.8,30.5,29.53,NE,48,3.0,3.0,95,0.00,,,0.00,Wunderground v.1.15,2013-02-26 23:00:00,
2013-02-26 18:10:00,31.7,30.4,29.54,NE,50,2.0,2.0,95,0.00,,,0.00,Wunderground v.1.15,2013-02-26 23:10:00,
2013-02-26 18:15:00,31.7,30.4,29.53,ESE,108,2.0,2.0,95,0.00,,,0.00,Wunderground v.1.15,2013-02-26 23:15:00,
2013-02-26 18:20:00,31.6,30.3,29.53,East,83,2.0,2.0,95,0.00,,,0.00,Wunderground v.1.15,2013-02-26 23:20:00,
2013-02-26 18:25:00,31.6,30.3,29.53,ENE,75,2.0,2.0,95,0.00,,,0.00,Wunderground v.1.15,2013-02-26 23:25:00,
2013-02-26 18:30:00,31.6,30.3,29.53,ENE,60,2.0,2.0,95,0.00,,,0.00,Wunderground v.1.15,2013-02-26 23:30:00,
2013-02-26 18:35:00,31.6,30.6,29.53,NE,49,2.0,2.0,96,0.00,,,0.00,Wunderground v.1.15,2013-02-26 23:35:00,
2013-02-26 18:40:00,31.6,30.6,29.53,ENE,68,2.0,2.0,96,0.00,,,0.00,Wunderground v.1.15,2013-02-26 23:40:00,
2013-02-26 18:45:00,31.6,30.6,29.53,East,83,2.0,2.0,96,0.00,,,0.00,Wunderground v.1.15,2013-02-26 23:45:00,
2013-02-26 18:50:00,31.6,30.6,29.53,East,83,2.0,2.0,96,0.00,,,0.00,Wunderground v.1.15,2013-02-26 23:50:00,
2013-02-26 18:55:00,31.6,30.6,29.53,NE,46,2.0,2.0,96,0.00,,,0.00,Wunderground v.1.15,2013-02-26 23:55:00,
2013-02-26 19:00:00,31.6,30.6,29.53,NE,36,3.0,3.0,96,0.00,,,0.00,Wunderground v.1.15,2013-02-27 00:00:00,
2013-02-26 19:10:00,31.6,30.6,29.53,East,82,2.0,3.0,96,0.00,,,0.00,Wunderground v.1.15,2013-02-27 00:10:00,
2013-02-26 19:15:00,31.6,30.6,29.54,ENE,61,2.0,3.0,96,0.00,,,0.00,Wunderground v.1.15,2013-02-27 00:15:00,
2013-02-26 19:20:00,31.6,30.6,29.54,East,79,2.0,3.0,96,0.00,,,0.00,Wunderground v.1.15,2013-02-27 00:20:00,
2013-02-26 19:25:00,31.5,30.5,29.53,ENE,71,2.0,3.0,96,0.00,,,0.00,Wunderground v.1.15,2013-02-27 00:25:00,
2013-02-26 19:30:00,31.5,30.5,29.53,ENE,65,2.0,2.0,96,0.00,,,0.00,Wunderground v.1.15,2013-02-27 00:30:00,
2013-02-26 19:35:00,31.5,30.5,29.53,East,81,2.0,2.0,96,0.00,,,0.00,Wunderground v.1.15,2013-02-27 00:35:00,
2013-02-26 19:45:00,31.5,30.5,29.53,East,81,2.0,2.0,96,0.00,,,0.00,Wunderground v.1.15,2013-02-27 00:45:00,
2013-02-26 19:50:00,31.5,30.5,29.53,ENE,73,2.0,2.0,96,0.00,,,0.00,Wunderground v.1.15,2013-02-27 00:50:00,
2013-02-26 19:55:00,31.5,30.5,29.53,ENE,68,2.0,2.0,96,0.00,,,0.00,Wunderground v.1.15,2013-02-27 00:55:00,
2013-02-26 20:00:00,31.5,30.5,29.53,NNE,31,2.0,2.0,96,0.00,,,0.00,Wunderground v.1.15,2013-02-27 01:00:00,
2013-02-26 20:10:00,31.5,30.5,29.52,ENE,75,2.0,2.0,96,0.00,,,0.00,Wunderground v.1.15,2013-02-27 01:10:00,
2013-02-26 20:15:00,31.5,30.5,29.52,East,79,2.0,2.0,96,0.00,,,0.00,Wunderground v.1.15,2013-02-27 01:15:00,
2013-02-26 20:20:00,31.5,30.5,29.52,ENE,64,2.0,2.0,96,0.00,,,0.00,Wunderground v.1.15,2013-02-27 01:20:00,
2013-02-26 20:25:00,31.5,30.5,29.52,East,86,2.0,2.0,96,0.00,,,0.00,Wunderground v.1.15,2013-02-27 01:25:00,
2013-02-26 20:30:00,31.6,30.6,29.52,ENE,63,2.0,2.0,96,0.00,,,0.00,Wunderground v.1.15,2013-02-27 01:30:00,
2013-02-26 20:35:00,31.5,30.5,29.51,ENE,58,2.0,2.0,96,0.00,,,0.00,Wunderground v.1.15,2013-02-27 01:35:00,
2013-02-26 20:40:00,31.6,30.6,29.51,NE,56,2.0,2.0,96,0.00,,,0.00,Wunderground v.1.15,2013-02-27 01:40:00,
2013-02-26 20:50:00,31.6,30.6,29.51,ENE,73,2.0,2.0,96,0.00,,,0.00,Wunderground v.1.15,2013-02-27 01:50:00,
2013-02-26 20:55:00,31.6,30.6,29.51,ENE,63,2.0,2.0,96,0.00,,,0.00,Wunderground v.1.15,2013-02-27 01:55:00,
2013-02-26 21:00:00,31.6,30.6,29.51,East,81,2.0,4.0,96,0.00,,,0.00,Wunderground v.1.15,2013-02-27 02:00:00,
2013-02-26 21:10:00,31.6,30.6,29.51,ENE,73,2.0,2.0,96,0.00,,,0.00,Wunderground v.1.15,2013-02-27 02:10:00,
2013-02-26 21:15:00,31.6,30.6,29.51,ENE,72,2.0,2.0,96,0.00,,,0.00,Wunderground v.1.15,2013-02-27 02:15:00,
2013-02-26 21:20:00,31.6,30.6,29.51,East,81,2.0,2.0,96,0.00,,,0.00,Wunderground v.1.15,2013-02-27 02:20:00,
2013-02-26 21:25:00,31.6,30.6,29.51,ENE,63,2.0,2.0,96,0.00,,,0.00,Wunderground v.1.15,2013-02-27 02:25:00,
2013-02-26 21:30:00,31.7,30.7,29.51,NE,56,2.0,3.0,96,0.00,,,0.00,Wunderground v.1.15,2013-02-27 02:30:00,
2013-02-26 21:35:00,31.7,30.7,29.51,NE,46,2.0,3.0,96,0.00,,,0.00,Wunderground v.1.15,2013-02-27 02:35:00,
2013-02-26 21:40:00,31.7,30.7,29.51,ENE,76,3.0,3.0,96,0.00,,,0.00,Wunderground v.1.15,2013-02-27 02:40:00,
2013-02-26 21:45:00,31.7,30.7,29.51,East,101,3.0,4.0,96,0.00,,,0.00,Wunderground v.1.15,2013-02-27 02:45:00,
2013-02-26 21:55:00,31.7,30.7,29.50,NE,41,3.0,3.0,96,0.00,,,0.00,Wunderground v.1.15,2013-02-27 02:55:00,
2013-02-26 22:00:00,31.7,30.7,29.50,ENE,57,3.0,3.0,96,0.00,,,0.00,Wunderground v.1.15,2013-02-27 03:00:00,
2013-02-26 22:10:00,31.7,30.7,29.50,ENE,68,2.0,2.0,96,0.00,,,0.00,Wunderground v.1.15,2013-02-27 03:10:00,
2013-02-26 22:15:00,31.7,30.7,29.50,ENE,62,2.0,2.0,96,0.00,,,0.00,Wunderground v.1.15,2013-02-27 03:15:00,
2013-02-26 22:20:00,31.7,30.7,29.50,ENE,63,2.0,3.0,96,0.00,,,0.00,Wunderground v.1.15,2013-02-27 03:20:00,
2013-02-26 22:25:00,31.7,30.7,29.50,East,79,2.0,3.0,96,0.00,,,0.00,Wunderground v.1.15,2013-02-27 03:25:00,
2013-02-26 22:30:00,31.7,30.7,29.50,ENE,64,2.0,2.0,96,0.00,,,0.00,Wunderground v.1.15,2013-02-27 03:30:00,
2013-02-26 22:35:00,31.7,30.7,29.50,NNE,23,2.0,4.0,96,0.00,,,0.00,Wunderground v.1.15,2013-02-27 03:35:00,
2013-02-26 22:40:00,31.7,30.7,29.50,NE,42,2.0,2.0,96,0.00,,,0.00,Wunderground v.1.15,2013-02-27 03:40:00,
2013-02-26 22:45:00,31.7,30.7,29.49,ENE,68,2.0,2.0,96,0.00,,,0.00,Wunderground v.1.15,2013-02-27 03:45:00,
2013-02-26 22:50:00,31.7,30.7,29.49,NE,48,2.0,2.0,96,0.00,,,0.00,Wunderground v.1.15,2013-02-27 03:50:00,
2013-02-26 23:00:00,31.7,30.7,29.49,ENE,66,2.0,2.0,96,0.00,,,0.00,Wunderground v.1.15,2013-02-27 04:00:00,
2013-02-26 23:10:00,31.7,30.7,29.48,ENE,57,2.0,2.0,96,0.00,,,0.00,Wunderground v.1.15,2013-02-27 04:10:00,
2013-02-26 23:15:00,31.7,30.7,29.48,East,82,2.0,2.0,96,0.00,,,0.00,Wunderground v.1.15,2013-02-27 04:15:00,
2013-02-26 23:20:00,31.7,30.7,29.48,NE,52,2.0,3.0,96,0.00,,,0.00,Wunderground v.1.15,2013-02-27 04:20:00,
2013-02-26 23:30:00,31.8,30.8,29.48,ENE,67,2.0,2.0,96,0.00,,,0.00,Wunderground v.1.15,2013-02-27 04:30:00,
2013-02-26 23:35:00,31.8,30.8,29.48,NE,51,2.0,2.0,96,0.00,,,0.00,Wunderground v.1.15,2013-02-27 04:35:00,
2013-02-26 23:40:00,31.7,30.7,29.48,NE,46,1.0,1.0,96,0.00,,,0.00,Wunderground v.1.15,2013-02-27 04:40:00,
2013-02-26 23:45:00,31.7,30.7,29.48,East,79,1.0,2.0,96,0.00,,,0.00,Wunderground v.1.15,2013-02-27 04:45:00,
2013-02-26 23:50:00,31.7,30.7,29.48,ENE,77,1.0,1.0,96,0.00,,,0.00,Wunderground v.1.15,2013-02-27 04:50:00,
2013-02-26 23:55:00,31.7,30.7,29.48,East,93,2.0,2.0,96,0.00,,,0.00,Wunderground v.1.15,2013-02-27 04:55:00,